Location: Helsinki
(60.1699°N, 24.9384°E)
Time: 20:47:57
(UTC+02:00)

Transit 2A Rocket - Pass Details

Date: 29 September 2023
Orbit: 593 x 903 km, 66.7° (Epoch: 29 November)

Event Time Altitude Azimuth Distance (km) Brightness Sun altitude
Rises 17:41:50 0° 257° (WSW) 3,213 10.5 8.7°
Reaches altitude 10° 17:44:24 10° 263° (W) 2,237 9.5 8.4°
Maximum altitude 17:49:19 49° 339° (NNW) 890 5.5 7.8°
Drops below altitude 10° 17:53:50 10° 54° (NE) 2,060 6.7 7.2°
Sets 17:56:07 0° 61° (ENE) 2,934 7.4 7.0°
